Карточка аэропорта UIAA

Внимание!
Информация на этой странице в стадии наполнения.
Если вы не увидели какой-то информации, или заметили неточность - пожалуйста сообщите нам!
Спасибо!
Команда RU-STAFF
Название аэропортаКадала
Название аэропорта (англ.)Kadala
Превышение2272 ft. (692.5 m.)
Координаты52°1.5779999999999', 113°18.3'
Высота перехода1850m
Эшелон переходаFL100
Коды ответчика3350-3377
Зона ОрВДИркутск РПИ (UIII)
Данные METARUIAA 281100Z 07002MPS 9999 SCT050CB 09/M03 Q1005 R29/290160 NOSIG RMK QFE695/0927
Проноз погоды (TAF)UIAA 280800Z 2809/2909 12007G15MPS 9999 BKN023CB TEMPO 2809/2818 06003G08MPS 3100 -SHRASN OVC014CB BECMG 2818/2820 26007G12MPS
NOTAMshow/hide NOTAM
AWOS   TABLE

Информация о ВПП


Диспетчерские позиции

Позывной Наименование органа УВД Частота
UIAA_APPЧита-Подход122.0
UIAA_TWRЧита-Вышка118.1
UIAA_GNDЧита Земля118.8



Спутниковое изображение